VINASAT-1

Last updated on May 20, 2019, 3:09 a.m. UTC

1 32767U 08018A   19139.83383461 -.00000338  00000-0  00000+0 0  9995
2 32767   0.0134 358.7443 0002207  84.9289 225.6645  1.00272379 40678
UTC
Height (km)
Latitude
Longitude
Inclination
Orbital Period
UTC large
Height (km)
Speed (km/s)
/
Latitude / Longitude
Inclination (degrees)
Orbital Period (minutes)
Azimuth
Elevation
Range (km)
Doppler Factor
iOS Compass Heading
iOS Angle

Next 30 passes for location: Hong Kong

Rise time Rise Azimuth (degrees) Set time Set Azimuth (degrees) Duration Max altitude (degrees)

No matching passes for this satellites